N0LSD-13 Weather Reports


Display with metric or nautical units.
time (UTC)temp
F
wind
direction
speed
MPH
gust
MPH
rain 1hr
in
rain 24hr
in
rain mn
in
humidity
%
barometer
mb
20260506084004 46 310 1.0 5.0 0.06 0.90 0.27 99 988.1
20260506083004 46 322 2.0 5.0 0.06 0.89 0.26 99 987.9
20260506082004 47 332 2.0 5.0 0.06 0.88 0.25 99 987.8
20260506081004 47 315 1.0 3.0 0.05 0.87 0.24 99 987.9
20260506073005 48 312 0.0 1.0 0.04 0.83 0.20 99 988.1
20260506071004 48 311 0.0 1.0 0.04 0.82 0.19 99 988.0
20260506062004 48 311 0.0 2.0 0.03 0.78 0.15 99 988.3
20260506061005 48 307 0.0 2.0 0.04 0.78 0.15 99 988.0
20260506045004 48 289 0.0 1.0 0.06 0.73 0.06 99 988.8
20260506044004 48 284 0.0 1.0 0.04 0.71 0.04 99 988.6
20260506043004 48 284 0.0 0.0 0.03 0.70 0.03 99 988.8
20260506042004 48 284 0.0 0.0 0.01 0.68 0.01 99 988.6
20260506041004 48 284 0.0 1.0 0.01 0.67 0.00 99 988.4
20260506040004 48 284 0.0 1.0 0.02 0.67 0.00 99 988.7
20260506035004 48 284 0.0 1.0 0.03 0.67 0.67 99 988.4
20260506034004 48 283 0.0 1.0 0.04 0.67 0.67 99 988.7
20260506033005 48 284 0.0 0.0 0.05 0.67 0.67 99 988.5
20260506032004 48 283 0.0 0.0 0.06 0.67 0.67 99 989.0
20260506031004 48 283 0.0 0.0 0.06 0.66 0.66 99 989.0
20260506030005 48 283 0.0 0.0 0.05 0.65 0.65 99 989.0
20260506025004 48 283 0.0 0.0 0.05 0.64 0.64 99 988.8
20260506023005 49 301 0.0 0.0 0.04 0.62 0.62 99 989.1
20260506022004 49 301 0.0 0.0 0.03 0.61 0.61 99 989.2
20260506020004 49 302 0.0 0.0 0.04 0.61 0.60 99 989.1
20260506015004 49 301 0.0 1.0 0.04 0.61 0.59 99 989.1
20260506014004 49 283 0.0 1.0 0.05 0.60 0.58 99 989.5
20260506013004 49 283 0.0 1.0 0.07 0.60 0.58 99 989.5
20260506012004 48 283 0.0 1.0 0.10 0.60 0.58 99 989.3
20260506011004 48 284 0.0 0.0 0.12 0.59 0.57 99 989.2
20260506010006 48 284 0.0 0.0 0.14 0.58 0.56 99 989.1
20260506005004 49 284 0.0 1.0 0.17 0.57 0.55 99 989.0
20260506003004 49 284 0.0 1.0 0.19 0.53 0.51 99 989.3
20260506001003 49 281 1.0 2.0 0.15 0.47 0.45 98 989.0
20260506000004 49 287 0.0 2.0 0.13 0.44 0.42 98 988.7
20260505235004 49 283 0.0 2.0 0.11 0.40 0.38 98 988.9
20260505234004 49 284 0.0 0.0 0.08 0.36 0.34 98 988.6
20260505233005 49 284 0.0 3.0 0.07 0.34 0.32 98 988.5
20260505231004 49 286 0.0 0.0 0.08 0.32 0.30 98 988.2
20260505225004 49 286 0.0 0.0 0.08 0.29 0.27 97 988.6
20260505223005 49 286 0.0 1.0 0.09 0.27 0.25 97 988.6
20260505222005 49 286 0.0 5.0 0.10 0.26 0.24 97 988.7
20260505221006 49 262 2.0 3.0 0.13 0.24 0.22 97 988.8
20260505220004 49 286 0.0 2.0 0.13 0.22 0.20 96 988.4
20260505215004 50 286 0.0 2.0 0.14 0.21 0.19 96 988.5
20260505214004 50 290 0.0 2.0 0.13 0.19 0.17 96 988.5
20260505213005 50 293 1.0 2.0 0.12 0.18 0.16 96 988.3
20260505212004 52 287 0.0 2.0 0.10 0.16 0.14 96 988.1
20260505211004 52 283 1.0 6.0 0.05 0.11 0.09 96 988.1
20260505210004 53 206 3.0 8.0 0.03 0.09 0.07 94 987.5
20260505205005 53 233 2.0 8.0 0.01 0.07 0.05 93 987.0
20260505204004 54 209 3.0 9.0 0.00 0.06 0.04 90 987.0
20260505203004 55 137 3.0 7.0 0.00 0.06 0.04 88 986.6
20260505202004 54 195 3.0 12.0 0.00 0.06 0.04 88 986.5
20260505201004 54 148 4.0 9.0 0.00 0.06 0.04 90 986.7
20260505200003 53 221 3.0 13.0 0.00 0.06 0.04 91 986.7
20260505195004 55 140 3.0 13.0 0.00 0.06 0.04 86 986.3
20260505194005 57 149 5.0 13.0 0.00 0.06 0.04 80 986.0
20260505193004 62 167 3.0 14.0 0.00 0.06 0.04 73 985.8
20260505192004 64 193 7.0 22.0 0.00 0.06 0.04 68 985.7
20260505191004 64 182 7.0 24.0 0.00 0.06 0.04 68 985.8
20260505190004 66 220 8.0 20.0 0.00 0.06 0.04 65 985.7
20260505185004 67 155 9.0 20.0 0.00 0.06 0.04 64 985.7
20260505184004 67 193 9.0 18.0 0.00 0.06 0.04 62 985.4
20260505183004 67 216 10.0 18.0 0.00 0.06 0.04 62 985.3
20260505182005 67 199 8.0 18.0 0.00 0.06 0.04 63 985.1
20260505181004 67 161 8.0 20.0 0.00 0.06 0.04 63 985.3
20260505180004 66 172 10.0 29.0 0.00 0.06 0.04 65 985.2
20260505175004 67 167 11.0 22.0 0.00 0.06 0.04 65 985.1
20260505174004 66 212 8.0 20.0 0.00 0.06 0.04 66 984.9
20260505173006 66 195 11.0 20.0 0.00 0.06 0.04 67 984.8
20260505172006 66 180 8.0 23.0 0.00 0.06 0.04 67 985.1
20260505171004 66 179 7.0 22.0 0.00 0.06 0.04 67 985.1
20260505165004 66 169 10.0 28.0 0.00 0.06 0.04 66 985.3
20260505164004 66 137 9.0 24.0 0.00 0.06 0.04 66 984.8
20260505163004 65 201 9.0 22.0 0.00 0.06 0.04 66 984.8
20260505162004 65 182 6.0 22.0 0.00 0.06 0.04 67 984.3
20260505153004 64 206 11.0 28.0 0.00 0.06 0.04 66 984.6
20260505152004 65 208 10.0 18.0 0.00 0.06 0.04 65 983.9
20260505151004 65 186 7.0 21.0 0.00 0.06 0.04 67 983.6
20260505125005 61 175 5.0 15.0 0.00 0.06 0.04 72 983.0
20260505124007 63 227 5.0 13.0 0.00 0.06 0.04 70 982.8
20260505123004 64 173 6.0 14.0 0.00 0.06 0.04 68 982.4
20260505122006 64 180 5.0 15.0 0.00 0.06 0.04 68 982.5
20260505121005 65 170 7.0 15.0 0.00 0.06 0.04 67 982.4
20260505120004 64 157 4.0 13.0 0.00 0.06 0.04 67 982.1
20260505115004 64 144 4.0 13.0 0.00 0.06 0.04 68 981.8
20260505114004 64 159 5.0 13.0 0.00 0.06 0.04 68 981.9
20260505113005 64 142 6.0 14.0 0.00 0.06 0.04 68 981.7
20260505112004 64 174 6.0 13.0 0.00 0.06 0.04 69 981.8
20260505111004 63 147 5.0 16.0 0.00 0.06 0.04 70 981.6
20260505101004 64 170 4.0 12.0 0.00 0.06 0.04 71 980.7
20260505100004 63 144 4.0 10.0 0.00 0.06 0.04 71 980.7
20260505095004 63 144 5.0 8.0 0.00 0.06 0.04 72 980.7
20260505094004 63 71 2.0 6.0 0.00 0.06 0.04 73 980.5
20260505093004 63 133 4.0 9.0 0.00 0.06 0.04 73 980.6
20260505092004 62 240 2.0 9.0 0.00 0.06 0.04 76 980.5
20260505091004 61 174 2.0 8.0 0.00 0.06 0.04 77 980.4
20260505090005 61 122 5.0 10.0 0.00 0.06 0.04 76 980.4
20260505085004 60 137 4.0 9.0 0.00 0.06 0.04 78 980.6